TimeCST,TemperatureF,Dew PointF,Humidity,Sea Level PressureIn,VisibilityMPH,Wind Direction,Wind SpeedMPH,Gust SpeedMPH,PrecipitationIn,Events,Conditions,WindDirDegrees,DateUTC
12:52 AM,27.0,19.9,75,30.04,10.0,Calm,Calm,-,N/A,,Clear,0,2012-12-05 06:52:00
1:52 AM,28.0,19.9,72,30.00,10.0,SSE,8.1,-,N/A,,Clear,160,2012-12-05 07:52:00
2:52 AM,28.0,21.0,75,29.96,10.0,SSE,8.1,-,N/A,,Clear,160,2012-12-05 08:52:00
3:52 AM,28.0,21.0,75,29.93,10.0,SSE,5.8,-,N/A,,Clear,160,2012-12-05 09:52:00
4:52 AM,28.9,21.0,72,29.89,10.0,South,6.9,-,N/A,,Scattered Clouds,170,2012-12-05 10:52:00
5:52 AM,28.9,21.0,72,29.88,10.0,South,4.6,-,N/A,,Scattered Clouds,180,2012-12-05 11:52:00
6:52 AM,27.0,21.0,78,29.85,10.0,SSE,4.6,-,N/A,,Clear,160,2012-12-05 12:52:00
8:52 AM,28.9,21.9,75,29.78,10.0,South,6.9,-,N/A,,Clear,180,2012-12-05 14:52:00
9:52 AM,30.0,23.0,75,29.76,10.0,SSE,6.9,-,N/A,,Clear,160,2012-12-05 15:52:00
10:52 AM,33.1,24.1,70,29.74,10.0,South,5.8,-,N/A,,Clear,170,2012-12-05 16:52:00
11:52 AM,36.0,26.1,67,29.69,10.0,South,6.9,-,N/A,,Clear,190,2012-12-05 17:52:00
12:52 PM,39.0,28.0,65,29.66,10.0,Calm,Calm,-,N/A,,Clear,0,2012-12-05 18:52:00
1:52 PM,39.9,28.9,65,29.64,10.0,SSW,8.1,-,N/A,,Clear,210,2012-12-05 19:52:00
2:52 PM,39.0,30.0,70,29.62,10.0,SSW,8.1,-,N/A,,Clear,210,2012-12-05 20:52:00
3:52 PM,39.9,30.0,68,29.62,10.0,South,5.8,-,N/A,,Clear,180,2012-12-05 21:52:00
4:52 PM,39.9,30.9,70,29.63,10.0,SW,10.4,-,N/A,,Clear,220,2012-12-05 22:52:00
5:52 PM,43.0,32.0,65,29.67,10.0,West,10.4,-,N/A,,Clear,280,2012-12-05 23:52:00
6:52 PM,43.0,30.0,60,29.72,10.0,WNW,16.1,25.3,N/A,,Partly Cloudy,290,2012-12-06 00:52:00
7:52 PM,39.9,28.9,65,29.76,10.0,WNW,18.4,27.6,N/A,,Clear,290,2012-12-06 01:52:00
8:52 PM,37.0,30.9,79,29.79,10.0,West,11.5,-,N/A,,Clear,280,2012-12-06 02:52:00
9:52 PM,36.0,30.0,79,29.81,10.0,WNW,16.1,-,N/A,,Clear,290,2012-12-06 03:52:00
10:52 PM,35.1,28.9,78,29.82,10.0,West,17.3,-,N/A,,Clear,280,2012-12-06 04:52:00
11:52 PM,33.1,28.0,82,29.85,10.0,West,12.7,-,N/A,,Clear,260,2012-12-06 05:52:00